Location: Mansoura
(31.0409°N, 31.3785°E)
Time: 13:53:45
(UTC+03:00)

ISS - Visible Passes

Search period start: 20 September 2024 00:00
Search period end: 30 September 2024 00:00
Orbit: 413 x 423 km, 51.6° (Epoch: 20 September)

Date Brightness Start Highest point End Pass type
(mag) Time Alt. Az. Time Alt. Az. Time Alt. Az.
28 Sep -1.4 20:17:59 10° NNW 20:19:10 16° N 20:19:10 16° N visible
29 Sep -1.5 19:30:41 10° N 19:32:16 13° NNE 19:33:10 12° NE visible
29 Sep -0.3 21:05:58 10° NW 21:06:06 11° NW 21:06:06 11° NW visible
